INTELSAT 22 (IS-22)

Last updated on Nov. 17, 2019, 4:19 a.m. UTC

1 38098U 12011A   19320.11121171 -.00000048  00000-0  00000+0 0  9995
2 38098   0.0099  95.7160 0001664 141.3731 289.9673  1.00272776 27930
UTC
Height (km)
Latitude
Longitude
Inclination
Orbital Period
UTC large
Height (km)
Speed (km/s)
/
Latitude / Longitude
Inclination (degrees)
Orbital Period (minutes)
Azimuth
Elevation
Range (km)
Doppler Factor
iOS Compass Heading
iOS Angle

Next 30 passes for location: Hong Kong

Rise time Rise Azimuth (degrees) Set time Set Azimuth (degrees) Duration Max altitude (degrees)

No matching passes for this satellites